| time (UTC) | temp F | wind direction | speed MPH | gust MPH | rain 1hr in | rain 24hr in | rain mn in | humidity % | barometer mb |
| 20260507223013 | 51 | 167 | 0.0 | 0.0 | 0.00 | 0.09 | 0.00 | 86 | 1013.6 |
| 20260507221509 | 51 | 167 | 0.0 | 0.0 | 0.00 | 0.09 | 0.00 | 87 | 1013.5 |
| 20260507220007 | 52 | 167 | 0.0 | 2.0 | 0.00 | 0.12 | 0.09 | 86 | 1013.4 |
| 20260507214514 | 52 | 167 | 0.0 | 3.0 | 0.00 | 0.12 | 0.09 | 85 | 1013.3 |
| 20260507213006 | 52 | 167 | 0.0 | 3.0 | 0.00 | 0.12 | 0.09 | 86 | 1013.2 |
| 20260507211506 | 52 | 167 | 0.0 | 1.0 | 0.00 | 0.12 | 0.09 | 86 | 1013.1 |
| 20260507210007 | 52 | 167 | 0.0 | 1.0 | 0.00 | 0.12 | 0.09 | 86 | 1013.1 |
| 20260507204505 | 53 | 167 | 0.0 | 0.0 | 0.00 | 0.12 | 0.09 | 85 | 1013.1 |
| 20260507203006 | 53 | 167 | 1.0 | 4.0 | 0.00 | 0.12 | 0.09 | 83 | 1012.9 |
| 20260507201512 | 54 | 167 | 0.0 | 1.0 | 0.00 | 0.12 | 0.09 | 81 | 1012.8 |
| 20260507200004 | 56 | 167 | 0.0 | 1.0 | 0.00 | 0.12 | 0.09 | 78 | 1012.8 |
| 20260507194504 | 57 | 167 | 0.0 | 4.0 | 0.00 | 0.12 | 0.09 | 77 | 1012.7 |
| 20260507193003 | 58 | 267 | 0.0 | 3.0 | 0.00 | 0.12 | 0.09 | 72 | 1012.5 |
| 20260507191504 | 60 | 298 | 0.0 | 2.0 | 0.00 | 0.12 | 0.09 | 69 | 1012.3 |
| 20260507190103 | 60 | 298 | 0.0 | 1.0 | 0.00 | 0.12 | 0.09 | 67 | 1012.4 |
| 20260507184502 | 61 | 298 | 0.0 | 2.0 | 0.00 | 0.12 | 0.09 | 66 | 1012.2 |
| 20260507183104 | 61 | 317 | 0.0 | 4.0 | 0.00 | 0.12 | 0.09 | 66 | 1012.2 |
| 20260507181602 | 62 | 46 | 0.0 | 5.0 | 0.00 | 0.12 | 0.09 | 65 | 1012.1 |
| 20260507180003 | 62 | 360 | 0.0 | 8.0 | 0.00 | 0.12 | 0.09 | 64 | 1012.0 |
| 20260507174637 | 62 | 21 | 3.0 | 8.0 | 0.00 | 0.12 | 0.09 | 65 | 1011.8 |
| 20260507173104 | 63 | 31 | 0.0 | 6.0 | 0.00 | 0.12 | 0.09 | 65 | 1011.8 |
| 20260507171505 | 63 | 30 | 6.0 | 10.0 | 0.00 | 0.12 | 0.09 | 65 | 1011.6 |
| 20260507170005 | 63 | 20 | 5.0 | 10.0 | 0.00 | 0.12 | 0.09 | 63 | 1011.6 |
| 20260507164506 | 63 | 19 | 3.0 | 9.0 | 0.00 | 0.12 | 0.09 | 65 | 1011.6 |
| 20260507163003 | 63 | 351 | 8.0 | 11.0 | 0.00 | 0.12 | 0.09 | 62 | 1011.6 |
| 20260507161502 | 64 | 228 | 3.0 | 11.0 | 0.00 | 0.12 | 0.09 | 60 | 1011.6 |
| 20260507160003 | 64 | 5 | 1.0 | 10.0 | 0.00 | 0.12 | 0.09 | 60 | 1011.8 |
| 20260507154501 | 65 | 77 | 4.0 | 8.0 | 0.00 | 0.12 | 0.09 | 61 | 1011.8 |
| 20260507153001 | 65 | 44 | 4.0 | 11.0 | 0.00 | 0.12 | 0.09 | 60 | 1011.7 |
| 20260507151601 | 65 | 336 | 2.0 | 6.0 | 0.00 | 0.12 | 0.09 | 60 | 1011.8 |
| 20260507150058 | 65 | 360 | 5.0 | 10.0 | 0.00 | 0.12 | 0.09 | 62 | 1011.9 |
| 20260507144558 | 66 | 48 | 6.0 | 12.0 | 0.00 | 0.12 | 0.09 | 64 | 1012.0 |
| 20260507143113 | 66 | 38 | 7.0 | 13.0 | 0.00 | 0.12 | 0.09 | 61 | 1012.1 |
| 20260507141617 | 66 | 10 | 6.0 | 10.0 | 0.00 | 0.12 | 0.09 | 64 | 1012.1 |
| 20260507140110 | 66 | 43 | 6.0 | 13.0 | 0.00 | 0.12 | 0.09 | 61 | 1012.4 |
| 20260507134552 | 66 | 17 | 2.0 | 9.0 | 0.00 | 0.12 | 0.09 | 61 | 1012.4 |
| 20260507133057 | 64 | 49 | 5.0 | 12.0 | 0.00 | 0.12 | 0.09 | 66 | 1012.6 |
| 20260507131614 | 66 | 25 | 4.0 | 12.0 | 0.00 | 0.12 | 0.09 | 63 | 1012.6 |
| 20260507130049 | 65 | 18 | 3.0 | 9.0 | 0.00 | 0.12 | 0.09 | 58 | 1012.7 |
| 20260507124553 | 64 | 59 | 3.0 | 10.0 | 0.00 | 0.12 | 0.09 | 67 | 1012.9 |
| 20260507123148 | 65 | 17 | 3.0 | 10.0 | 0.00 | 0.12 | 0.09 | 65 | 1013.0 |
| 20260507121546 | 64 | 5 | 5.0 | 10.0 | 0.00 | 0.12 | 0.09 | 67 | 1013.1 |
| 20260507120045 | 63 | 306 | 2.0 | 10.0 | 0.00 | 0.12 | 0.09 | 63 | 1013.1 |
| 20260507114545 | 63 | 16 | 3.0 | 8.0 | 0.00 | 0.12 | 0.09 | 68 | 1013.3 |
| 20260507113104 | 64 | 30 | 5.0 | 10.0 | 0.00 | 0.12 | 0.09 | 69 | 1013.4 |
| 20260507111541 | 63 | 49 | 4.0 | 13.0 | 0.00 | 0.12 | 0.09 | 70 | 1013.6 |
| 20260507110040 | 62 | 18 | 3.0 | 13.0 | 0.00 | 0.12 | 0.09 | 75 | 1013.6 |
| 20260507104536 | 61 | 26 | 4.0 | 11.0 | 0.00 | 0.12 | 0.09 | 76 | 1013.7 |
| 20260507103036 | 60 | 255 | 2.0 | 12.0 | 0.00 | 0.12 | 0.09 | 77 | 1013.9 |
| 20260507101536 | 60 | 69 | 2.0 | 8.0 | 0.00 | 0.12 | 0.09 | 78 | 1013.9 |
| 20260507100043 | 60 | 23 | 4.0 | 9.0 | 0.00 | 0.12 | 0.09 | 79 | 1014.1 |
| 20260507094537 | 61 | 355 | 3.0 | 10.0 | 0.00 | 0.12 | 0.09 | 78 | 1014.1 |
| 20260507093034 | 59 | 11 | 5.0 | 10.0 | 0.00 | 0.12 | 0.09 | 77 | 1014.1 |
| 20260507091534 | 59 | 11 | 1.0 | 10.0 | 0.00 | 0.12 | 0.09 | 85 | 1014.0 |
| 20260507090027 | 58 | 58 | 4.0 | 7.0 | 0.00 | 0.12 | 0.09 | 83 | 1014.0 |
| 20260507084543 | 57 | 360 | 3.0 | 7.0 | 0.00 | 0.12 | 0.09 | 84 | 1013.9 |
| 20260507083025 | 56 | 26 | 2.0 | 8.0 | 0.00 | 0.12 | 0.09 | 84 | 1014.0 |
| 20260507081521 | 56 | 5 | 4.0 | 8.0 | 0.00 | 0.12 | 0.09 | 87 | 1014.1 |
| 20260507080018 | 55 | 14 | 3.0 | 6.0 | 0.00 | 0.12 | 0.09 | 86 | 1014.1 |
| 20260507074517 | 54 | 65 | 0.0 | 4.0 | 0.00 | 0.13 | 0.09 | 89 | 1014.0 |
| 20260507073015 | 54 | 297 | 3.0 | 6.0 | 0.00 | 0.13 | 0.09 | 91 | 1014.0 |
| 20260507071516 | 53 | 17 | 0.0 | 4.0 | 0.00 | 0.13 | 0.09 | 93 | 1013.7 |
| 20260507070017 | 52 | 24 | 1.0 | 3.0 | 0.00 | 0.13 | 0.09 | 93 | 1013.6 |
| 20260507064508 | 52 | 109 | 1.0 | 3.0 | 0.00 | 0.13 | 0.09 | 95 | 1013.7 |
| 20260507063008 | 51 | 109 | 0.0 | 0.0 | 0.00 | 0.13 | 0.09 | 96 | 1013.6 |
| 20260507061506 | 48 | 160 | 0.0 | 0.0 | 0.00 | 0.13 | 0.09 | 96 | 1013.5 |
| 20260507060006 | 46 | 159 | 0.0 | 0.0 | 0.00 | 0.13 | 0.09 | 96 | 1013.6 |
| 20260507054508 | 46 | 159 | 0.0 | 0.0 | 0.00 | 0.13 | 0.09 | 96 | 1013.5 |
| 20260507053005 | 45 | 159 | 0.0 | 0.0 | 0.00 | 0.13 | 0.09 | 96 | 1013.4 |
| 20260507051502 | 45 | 159 | 0.0 | 0.0 | 0.00 | 0.13 | 0.09 | 96 | 1013.3 |
| 20260507050111 | 44 | 159 | 0.0 | 0.0 | 0.00 | 0.13 | 0.09 | 95 | 1013.1 |
| 20260507044600 | 44 | 159 | 0.0 | 0.0 | 0.00 | 0.51 | 0.09 | 95 | 1013.0 |
| 20260507043058 | 44 | 159 | 0.0 | 0.0 | 0.00 | 0.51 | 0.09 | 95 | 1012.9 |
| 20260507041557 | 44 | 159 | 0.0 | 0.0 | 0.00 | 0.51 | 0.09 | 95 | 1013.0 |
| 20260507040103 | 44 | 159 | 0.0 | 0.0 | 0.00 | 0.51 | 0.09 | 94 | 1012.9 |
| 20260507034559 | 44 | 159 | 0.0 | 2.0 | 0.00 | 0.56 | 0.09 | 95 | 1013.0 |
| 20260507033053 | 45 | 159 | 1.0 | 3.0 | 0.00 | 0.56 | 0.09 | 94 | 1012.9 |
| 20260507031555 | 46 | 159 | 0.0 | 3.0 | 0.00 | 0.56 | 0.09 | 95 | 1012.9 |
| 20260507030051 | 45 | 166 | 1.0 | 3.0 | 0.00 | 0.56 | 0.09 | 95 | 1012.8 |
| 20260507024550 | 45 | 166 | 0.0 | 0.0 | 0.00 | 0.67 | 0.09 | 94 | 1012.9 |
| 20260507023050 | 45 | 166 | 0.0 | 2.0 | 0.00 | 0.67 | 0.09 | 94 | 1012.8 |
| 20260507021558 | 45 | 217 | 0.0 | 2.0 | 0.00 | 0.67 | 0.09 | 95 | 1012.9 |
| 20260507020049 | 45 | 215 | 1.0 | 3.0 | 0.00 | 0.67 | 0.09 | 93 | 1012.8 |
| 20260507014548 | 45 | 215 | 1.0 | 2.0 | 0.00 | 0.70 | 0.09 | 94 | 1012.8 |
| 20260507013048 | 45 | 215 | 2.0 | 4.0 | 0.00 | 0.70 | 0.09 | 94 | 1012.7 |
| 20260507011549 | 45 | 163 | 0.0 | 3.0 | 0.00 | 0.70 | 0.09 | 93 | 1012.6 |
| 20260507010045 | 46 | 163 | 0.0 | 2.0 | 0.00 | 0.70 | 0.09 | 93 | 1012.5 |
| 20260507004540 | 46 | 163 | 1.0 | 3.0 | 0.00 | 0.87 | 0.09 | 93 | 1012.5 |
| 20260507003038 | 47 | 163 | 0.0 | 2.0 | 0.00 | 0.87 | 0.09 | 93 | 1012.5 |
| 20260507001537 | 47 | 163 | 1.0 | 5.0 | 0.00 | 0.87 | 0.09 | 93 | 1012.5 |
| 20260507000037 | 47 | 241 | 0.0 | 3.0 | 0.00 | 0.87 | 0.09 | 92 | 1012.6 |
| 20260506234538 | 48 | 225 | 2.0 | 4.0 | 0.00 | 0.91 | 0.09 | 92 | 1012.6 |
| 20260506233031 | 49 | 180 | 0.0 | 2.0 | 0.02 | 0.91 | 0.09 | 92 | 1012.6 |
| 20260506231529 | 50 | 247 | 0.0 | 3.0 | 0.03 | 0.91 | 0.09 | 91 | 1012.6 |
| 20260506230026 | 50 | 213 | 0.0 | 4.0 | 0.09 | 0.91 | 0.09 | 92 | 1012.5 |
| 20260506224526 | 50 | 169 | 1.0 | 3.0 | 0.11 | 0.91 | 0.08 | 93 | 1012.6 |